Flag for Bahamas Weather past 2 weeks in Nassau, Bahamas

Now
63 °F

Fog.


Feels Like: 63 °F
Forecast: 73 / 76 °F
Wind: No wind

Location: Nassau Airport

Current Time: Dec 20, 2014 at 7:35:27 AM

Latest Report: Dec 20, 2014 at 7:00 AM


Visibility: N/A

Pressure: 30.10 "Hg

Humidity: 100%

Dew point: 63 °F

Location of NassauLocation

Historic Weather in Nassau — Graph

°F

Nassau temperature yesterday

Maximum temperature yesterday: 79 °F (at 1:00 PM)
Minimum temperature yesterday: 57 °F (at 4:00 AM)
Average temperature yesterday: 68 °F

Past Weeks' High & Low Weather Summary

 TemperatureHumidityPressure
High81 °F (Dec 5, 1:00 PM)100% (Dec 18, 7:00 AM)30.22 "Hg (Dec 18, 7:00 AM)
Low57 °F (Dec 18, 7:00 AM)36% (Dec 14, 12:00 PM)29.90 "Hg (Dec 9, 4:00 PM)
Average71 °F68%30.08 "Hg
* Reported Dec 5 5:00 AM — Dec 20 5:00 AM, Nassau, Weather by CustomWeather, © 2014

Note: Actual official high and low records may vary slightly from our data, if they occured in-between our weather recording intervals... More about our weather records

Advertising

Nassau weather history for previous 24 hours

 ConditionsComfort  
Time TempWeatherWind HumidityBarometerVisibility
5:00 AM
Dec 20
66 °FPassing clouds.No wind83%30.05 "HgN/A
4:00 AM63 °FPassing clouds.No wind100%30.04 "HgN/A
3:00 AM66 °FPassing clouds.No wind83%30.05 "HgN/A
2:00 AM66 °FPassing clouds.No wind83%30.06 "HgN/A
1:00 AM66 °FPassing clouds.No wind94%30.06 "HgN/A
12:00 AM66 °FClear.No wind78%30.08 "Hg10 mi
11:00 PM
Dec 19
66 °FClear.No wind83%30.09 "Hg10 mi
10:00 PM66 °FClear.No wind88%30.08 "Hg10 mi
9:00 PM68 °FMild.No wind78%30.08 "HgN/A
8:00 PM70 °FPassing clouds.No wind73%30.08 "HgN/A
7:00 PM68 °FMild.No wind83%30.07 "HgN/A
6:00 PM72 °FPassing clouds.No wind69%30.06 "HgN/A
5:00 PM75 °FMild.3 mph61%30.04 "HgN/A
4:00 PM77 °FPassing clouds.3 mph61%30.03 "HgN/A
3:00 PM77 °FPassing clouds.6 mph51%30.03 "HgN/A
2:00 PM79 °FPassing clouds.7 mph54%30.06 "HgN/A
1:00 PM79 °FPassing clouds.5 mph61%30.07 "HgN/A
12:00 PM77 °FPassing clouds.3 mph54%30.11 "HgN/A
11:00 AM75 °FPassing clouds.9 mph57%30.12 "HgN/A
10:00 AM77 °FPassing clouds.5 mph65%30.14 "HgN/A
9:00 AM73 °FPassing clouds.3 mph65%30.12 "HgN/A
7:00 AM57 °FFog.No wind94%30.09 "Hg6 mi
Weather by CustomWeather, © 2014

See weather overviewHow to use our weather pages